Find OneWeb SL0113

NORAD ID: 48050 Int'l Des: 2021-025 Owner: ONEWEBN Country: UK Constellation: oneweb operational
LEOCIRCULARPOLARONEWEB_TYPE

当前视图

正在加载3D地球...

About OneWeb SL0113

OneWeb SL0113 (NORAD 48050) is a oneweb constellation satellite launched Mar 25, 2021 by ONEWEBN of UK. It operates in LEO, CIRCULAR, POLAR, ONEWEB_TYPE orbit with a mass of 148.00 kg.

关于 OneWeb SL0113

正在加载描述...

即将过境

Passes for default location (London). Set your location on the main map for personalized predictions.

高度历史

Loading altitude history...

两行轨道根数

1 48050U 21025J 26171.44249552 -.00000243 00000-0 -69513-3 0 9997
2 48050 87.8962 319.4878 0001860 94.0441 266.0901 13.13893684254030
Epoch: Jun 20, 2026 • Age: 22 hours

当前状态

高度 1210.1 km
速度 7.25 km/s
星下点 18.79°N, 79.25°W
发射日期 Mar 25, 2021
运行时间 5.2 years
类型 internet

技术详情

分类 Payload
质量 148.00 kg
干质量 140.00 kg
总质量 148.00 kg
长度 1.30 m
直径 1.00 m
跨度 5.00 m
形状 Trapezoid+2 pan
制造商 ONEWUS
平台类型 ARROW
阶段状态 In Orbit
所有者/国家 ONEWEBN/UK

Most Searched